ONEWEB-0034 (45454 NORAD) Tracking and Keplerian Element Data

This shows tracking and keplerian element data for the satellite.

Feedback or suggestion? Click here.




ElementValue
Catalog45454
NameONEWEB-0034
Epoch Orbit23726
Epoch Day34.75584605
Epoch Year2025
RAAN120.4058
Inclination87.8895
Eccentricity0.0001839
Argument of Perigee106.4311
Mean Anonmoly253.7019
Mean Motion13.11418138
Decay Rate4.37E-06
L11 45454U 20020AG 25034.75584605 .00000437 00000+0 11962-2 0 9994
L22 45454 87.8895 120.4058 0001839 106.4311 253.7019 13.11418138237264



Live tracking and technical data element details for ONEWEB-0034 (NORAD 45454). ONEWEB-0034 can be tracked NOW for your location showing map with azimuth and elevation plus other details from your city location.







IsCatalogInMostPopularTable: catalog: 45454, numindb: 280
Update: records affected: 1



GetName: 45454 ONEWEB-0034

Hit Count: updated at: Thu, 15 May 2025 18:55:23 GMT